ROMMA est une association bénévole à but non lucratif. Votre soutien est indispensable : ADHERER à ROMMA ou FAIRE un DON

Taninges - (74, Haute-Savoie)

Vallée du Giffre (635 m)   Longitude: 06° 35' 38" E   Latitude: 46° 06' 21" N Station romma n°98
 

Détail journalier du     <<     >>

Température Precipitation Humidité Pression Vent Dir Rafale Dir. rafale Ensol.
Heure (°C) (mm) (%) (hPa) (km/h) (km/h) (min)
01:00 6.8096101803E0
02:00 6.3096101803E0
03:00 5.809610181ESE3ENE0
04:00 5.609710181ENE5E0
05:00 5.2097101805SSO0
06:00 4.609710191ESE6ENE0
07:00 3.80.29710192E6ENE0
08:00 3.509710191ONO6NE0
09:00 3.70971019005
10:00 6.409810182ONO10OSO60
11:00 8.809810172S8SSO60
12:00 11.208210173O10ONO60
13:00 13.206810165SO10OSO60
14:00 14.106810154SO10OSO60
15:00 14.706710157OSO15OSO60
16:00 15.006310158OSO18OSO60
17:00 15.905810145OSO15O60
18:00 13.607310151SSO5NO30
19:00 9.008810161SSO5S0
20:00 7.709010171SE5SSE0
21:00 6.4093101702SE0
22:00 5.609510171SE5SE0
23:00 5.209510171S5E0
minuit 5.209610171S5S0

Graphique du 16-10-2019

 

Serveur OMMA